User: anonymous   Login
Location: Pine Mountain Observatory
(43.7910°N, 120.9377°W)
Time: 16:59:34
(UTC-07:00)
Language:

APEX - Orbit

View from above orbital plane
View from above orbital plane
View from above satellite
View from above satellite

Ground track
Ground track

The orbit data is extracted from the following two-line orbital elements,

1 23191U 94046A   16149.75932277  .00015210  00000-0  53587-3 0  9992
2 23191  69.9269  25.7359 0629007  57.8312 308.2241 14.31290782 61419
Epoch (UTC): 28 May 2016 18:13:25
Eccentricity: 0.0629007
inclination: 69.9269°
perigee height: 337 km
apogee height: 1238 km
right ascension of ascending node: 25.7359°
argument of perigee: 57.8312°
revolutions per day: 14.31290782
mean anomaly at epoch: 308.2241°
orbit number at epoch: 6141

The dashed part of the orbit path shows where the satellite is in the earth's shadow,  

DLR